Showing default

COSMOS 2424 (GLONASS), 29672

Orbit data source: Space-Track

COSMOS 2424 (GLONASS), 29672 is a Commonwealth of Independent States-origin payload satellite in MEO that was launched on Mon, 25 Dec 2006 UTC via a PROTON-K/DM-2 launch vehicle from the Tyuratam Missile And Space Complex (TTMTR). Payload-class satellites include a variety of spacecraft equipped with specific instruments for various scientific and technological missions. These include communications satellites like Starlink; space stations such as the ISS; scientific satellites like the Hubble; Earth observation satellites from companies like Planet Labs, Umbra, and HawkEye 360; GPS; miniature CubeSats for education and research; and military/defense satellites.

Loading next visibility...
Identifier
29672, 2006-062C
Orbit
MEO
Country
Flag of CISCIS
Related business
Manufacturer
Resehetnev ISS
Mission
Non-operational Defense Navigation
Bus & Motor
URAGAN, Unknown motor
Mass
1,450 kg wet, ~1,200 kg dry
Launch date (UTC)
2006-12-25 (19 years ago)
Launch vehicle
PROTON-K/DM-2
Launch site
Tyuratam Missile And Space Complex (TTMTR)
Object type
Payload
Rocket body
Debris
Shape & HBR
Cyl + 1 Arm + 2 Pan, 3.9 m
Radar Cross Section
8.145 m², Large (>1 m²)

Expand to show TLE details & history
Last TLE update: 3 days ago

TLE from 3 days ago
0 COSMOS 2424 (GLONASS)
1 29672U 06062C   25347.55102406  .00000080  00000-0  00000-0 0  9992
2 29672  64.6943 200.4748 0019463 172.6088 187.4949  2.13122891147621
Epoch: 2025-12-13T13:13Z
TLE epoch observation values (Epoch: 2025-12-13T13:13:28.478Z)
Latitude
-0.00005°
Longitude
-80.36774°
Altitude
19,178.006 km
Speed
3.946 km/s
True Right ascension
13h 21m 54s
True Declination
0° 00' 00"
Sunlit
Object was in daylight at epoch
Visualization orbit readout
Latitude
Unknown
Longitude
Unknown
Altitude
Unknown
Speed
Unknown
Apparent Right ascension
Unknown
Apparent Declination
Unknown
Sunlit
N/A
Visualization observer readout
Local Sidereal Time
23:57:39
Azimuth
Unknown
Elevation
Unknown
Doppler factor
Unknown
Orbital elements
Apogee altitude
19,177.488 km
Perigee altitude
19,078.204 km
Semi-major axis
25,505.983 km
Eccentricity
0.00195
Inclination
64.6943°
RAAN
200.4748°
Arg. of periapsis
172.6088°
True anomaly
187.46588°
Mean anomaly
187.4949°
Eccentric anomaly
187.48038°
Mean motion
0.53282 °/min
Orbital period
675.65 mins
BSTAR
0
Loading maneuver chart data...
Computing Atmospheric mass density...
Loading historical data...
Loading historical data...
Loading historical data...
Loading historical data...
Loading historical data...
Loading historical data...
Loading historical data...

Documentation

Showing up to 5 results
|